Regional Weather Roundup
Issued by NWS Newport/Morehead, NC

Home | Current Version | Previous Version | Text Only | Print | Product List | Glossary On
Versions: 1 2 3 4 5 6 7 8 9 10 11 12 13 14 15 16 17 18 19 20 21 22 23 24 25 26 27 28 29 30 31 32 33 34 35 36 37 38 39 40 41 42 43 44 45 46 47 48 49 50
000
ASUS42 KMHX 151025
RWRMHX
WEATHER ROUNDUP FOR EASTERN NORTH CAROLINA
NATIONAL WEATHER SERVICE NEWPORT/MOREHEAD CITY NC
500 AM EST FRI DEC 15 2017

NOTE: "FAIR" INDICATES FEW OR NO CLOUDS BELOW 12,000 FEET
WITH NO SIGNIFICANT WEATHER AND/OR OBSTRUCTIONS TO VISIBILITY

NCZ015>017-031-032-045>047-102-103-151100-
NORTH COAST

CITY           SKY/WX    TMP DP  RH WIND       PRES   REMARKS
EDENTON        PTCLDY    37  31  81 N5        30.03S
ELIZABETH CITY PTCLDY    37  34  89 N7        30.03F
KITTY HAWK     MOSUNNY   47  39  71 E6        30.00F
MANTEO         CLOUDY    47  40  78 E9        30.02S

$$

NCZ045>047-081-094-103-104-151100-
CENTRAL COAST

CITY           SKY/WX    TMP DP  RH WIND       PRES   REMARKS
FRISCO         PTCLDY    48  44  86 N3        29.99S

$$

NCZ095-097-098-100-101-151100-
SOUTHERN COAST

CITY           SKY/WX    TMP DP  RH WIND       PRES   REMARKS
BEAUFORT       MOCLDY    44  42  93 N3        30.00R
CEDAR ISLAND   NOT AVBL
JACKSONVILLE   MOCLDY    40  38  93 CALM      29.99S
PINEY ISLAND     N/A    N/A N/A N/A NE6       29.99S
WILMINGTON     CLOUDY    40  38  93 NE3       29.99S


$$

NCZ011>013-027>030-043-044-078>080-089-090>093-098-151100-
COASTAL PLAIN

CITY           SKY/WX    TMP DP  RH WIND       PRES   REMARKS
AHOSKIE        CLOUDY    31  24  73 N5        30.04F
CLINTON        CLOUDY    39  36  88 E3        29.99F
ELIZABETHTOWN  NOT AVBL
GOLDSBORO      CLOUDY    36  29  77 NE6       29.98F
GREENVILLE     MOCLDY    34  30  86 N3        30.03S
HAVELOCK       CLOUDY    41  32  70 N3        30.01R
KENANSVILLE    CLOUDY    37  34  87 CALM      29.99S
KINSTON        NOT AVBL
NEW BERN       CLOUDY    37  36  96 CALM      30.02R
RICHLANDS      PTCLDY    37  36  96 NE5       29.99F
ROCKY MOUNT    CLOUDY    34  26  72 NE6       30.02F
WASHINGTON     PTCLDY    36  32  84 NE5       30.01S
WHITEVILLE     CLOUDY    39  38  93 CALM      29.98S

$$

AMZ130-135-150-152-154-156-158-170-250-252-270-ANZ085-086-088-633-658-670-151100-
MARINE OBSERVATIONS

STATION/POSITION TIME  TEMP    WIND        PRES    WAVE   SWELL
                       AIR SEA DIR/SP/G            HT/PER HT/PER
                 (UTC) (F)     (DEG/KT/KT) (MB)    (FT/S) (FT/S)
CHESAPEAKE LIGHT NOT AVBL
64 E VA BEACH    0950   47 59   60/ 12/ 14 1017.2    4/ 7   3/ 7
DUCK             1000   48 52   70/ 14/ 17 1016.0
2 E DUCK         0930      55                N/A     4/ 5
OREGON INLET     1000   49 44   50/  7/ 10 1015.8
13E OREGON INLT  0948      64                N/A     4/ 6   3/ 6
HATTERAS CG      1000   49 53   40/  4/  5 1015.2
DIAMOND BUOY     1010   60 74   70/  4/  8 1015.0
CAPE LOOKOUT     1000           10/  5/  6 1015.7
BEAUFORT LAB     1000   45 50   10/  6/  8 1015.7
30 SE NEW RVR IN 0908   58 64  240/  4/  8 1015.2
30 SE NEW RVR IN 0930      64                N/A     4/ 7
27 SE WRIGHTSVLE 0908   57 64  260/  4/  8 1015.3
5 SE WRIGHTSVLE  0908   52 56   30/  2/  4 1015.0
225 S CAPE HAT   0950   71 74  250/ 17/ 21 1015.6    6/ 8   3/27
41 SE CHARLESTON 1010      73  270/ 12/ 16 1015.6

$$




USA.gov is the U.S. government's official web portal to all federal, state and local government web resources and services.